This is the latest recevied weather packets stored in our database for station/object K9COE-11. If no packets are shown the sender has not sent any weather packets the latest 10 day(s).
| Time | Temp. | Humidity | Pressure | Rain* | Wind** | Luminosity | Snow |
|---|---|---|---|---|---|---|---|
| 1777581852 | 22.78° C | 48% | - | 0 mm | - | - | - |
| 1777581005 | 22.78° C | 48% | - | 0 mm | - | - | - |
| 1777580969 | 22.78° C | 48% | - | 0 mm | - | - | - |
| 1777580840 | 22.78° C | 47% | - | 0 mm | - | - | - |
| 1777580588 | 22.78° C | 48% | - | 0 mm | - | - | - |
| 1777580459 | 22.78° C | 47% | - | 0 mm | - | - | - |
| 1777580207 | 22.78° C | 48% | - | 0 mm | - | - | - |
| 1777580081 | 22.78° C | 48% | - | 0 mm | - | - | - |
| 1777579957 | 23.33° C | 47% | - | 0 mm | - | - | - |
| 1777579578 | 22.78° C | 47% | - | 0 mm | - | - | - |
| 1777579320 | 22.78° C | 46% | - | 0 mm | - | - | - |
| 1777578939 | 22.78° C | 45% | - | 0 mm | - | - | - |
| 1777578428 | 22.78° C | 45% | - | 0 mm | - | - | - |
| 1777577911 | 22.78° C | 43% | - | 0 mm | - | - | - |
| 1777577539 | 22.22° C | 48% | - | 0 mm | - | - | - |
| 1777577151 | 22.78° C | 48% | - | 0 mm | - | - | - |
| 1777576511 | 22.78° C | 45% | - | 0 mm | - | - | - |
| 1777576388 | 21.67° C | 43% | - | 0 mm | - | - | - |
| 1777575880 | 22.22° C | 44% | - | 0 mm | - | - | - |
| 1777575373 | 22.22° C | 43% | - | 0 mm | - | - | - |
| 1777575342 | 22.78° C | 44% | - | 0 mm | - | - | - |
| 1777575249 | 22.78° C | 44% | - | 0 mm | - | - | - |
| 1777575120 | 22.22° C | 45% | - | 0 mm | - | - | - |
| 1777574733 | 21.67° C | 46% | - | 0 mm | - | - | - |
| 1777574360 | 21.67° C | 46% | - | 0 mm | - | - | - |
* Rain latest 24 hours (hover to see other rain measurements)
** Current wind speed in m/s (hover to see current wind gust speed)